TimeCST,TemperatureF,Dew PointF,Humidity,Sea Level PressureIn,VisibilityMPH,Wind Direction,Wind SpeedMPH,Gust SpeedMPH,PrecipitationIn,Events,Conditions,WindDirDegrees,DateUTC
12:15 AM,6.8,-4.0,61,30.37,10.0,NNW,12.7,19.6,N/A,,Clear,330,2013-01-24 06:15:00
12:35 AM,6.8,-4.0,61,30.38,10.0,NNW,18.4,21.9,N/A,,Clear,340,2013-01-24 06:35:00
12:55 AM,6.8,-4.0,61,30.39,10.0,NNW,12.7,17.3,N/A,,Clear,340,2013-01-24 06:55:00
1:15 AM,5.0,-4.0,66,30.41,10.0,NNW,12.7,-,N/A,,Clear,330,2013-01-24 07:15:00
1:35 AM,5.0,-4.0,66,30.42,10.0,NNW,11.5,-,N/A,,Clear,330,2013-01-24 07:35:00
1:55 AM,5.0,-5.8,61,30.44,10.0,NNW,13.8,-,N/A,,Clear,340,2013-01-24 07:55:00
2:15 AM,5.0,-5.8,61,30.44,10.0,NNW,11.5,-,N/A,,Clear,330,2013-01-24 08:15:00
2:35 AM,5.0,-5.8,61,30.45,10.0,NNW,15.0,19.6,N/A,,Clear,330,2013-01-24 08:35:00
2:55 AM,5.0,-5.8,61,30.46,10.0,NNW,12.7,-,N/A,,Clear,330,2013-01-24 08:55:00
3:15 AM,5.0,-5.8,61,30.47,10.0,NNW,11.5,19.6,N/A,,Clear,340,2013-01-24 09:15:00
3:35 AM,3.2,-5.8,66,30.48,10.0,NNW,10.4,-,N/A,,Clear,340,2013-01-24 09:35:00
3:55 AM,3.2,-5.8,66,30.49,10.0,NNW,10.4,17.3,N/A,,Clear,340,2013-01-24 09:55:00
4:15 AM,3.2,-5.8,66,30.51,10.0,NNW,9.2,-,N/A,,Clear,330,2013-01-24 10:15:00
4:35 AM,3.2,-5.8,66,30.51,10.0,NNW,10.4,-,N/A,,Clear,330,2013-01-24 10:35:00
4:55 AM,3.2,-5.8,66,30.53,10.0,NNW,6.9,-,N/A,,Clear,330,2013-01-24 10:55:00
5:15 AM,3.2,-5.8,66,30.54,10.0,NW,8.1,-,N/A,,Clear,320,2013-01-24 11:15:00
5:35 AM,3.2,-5.8,66,30.56,10.0,NW,9.2,-,N/A,,Clear,310,2013-01-24 11:35:00
6:45 AM,1.4,-7.6,66,30.57,10.0,NW,9.2,-,N/A,,Clear,320,2013-01-24 12:45:00
7:45 AM,1.4,-7.6,66,30.59,10.0,NNW,10.4,-,N/A,,Clear,340,2013-01-24 13:45:00
8:45 AM,3.2,-5.8,66,30.62,10.0,NNW,10.4,-,N/A,,Clear,340,2013-01-24 14:45:00
9:45 AM,6.8,-2.2,67,30.63,10.0,NNW,8.1,-,N/A,,Clear,340,2013-01-24 15:45:00
10:45 AM,8.6,-0.4,67,30.61,10.0,NNW,5.8,-,N/A,,Clear,330,2013-01-24 16:45:00
11:45 AM,10.4,1.4,67,30.60,10.0,Calm,Calm,-,N/A,,Clear,0,2013-01-24 17:45:00
12:45 PM,14.0,1.4,57,30.57,10.0,Calm,Calm,-,N/A,,Clear,0,2013-01-24 18:45:00
1:45 PM,15.8,1.4,53,30.55,10.0,Calm,Calm,-,N/A,,Clear,0,2013-01-24 19:45:00
2:45 PM,15.8,3.2,58,30.54,10.0,Calm,Calm,-,N/A,,Clear,0,2013-01-24 20:45:00
3:45 PM,15.8,1.4,53,30.52,10.0,Calm,Calm,-,N/A,,Clear,0,2013-01-24 21:45:00
4:45 PM,15.8,1.4,53,30.50,10.0,Calm,Calm,-,N/A,,Clear,0,2013-01-24 22:45:00
5:45 PM,15.8,1.4,53,30.50,10.0,Calm,Calm,-,N/A,,Overcast,0,2013-01-24 23:45:00
6:45 PM,15.8,1.4,53,30.47,10.0,Calm,Calm,-,N/A,,Overcast,0,2013-01-25 00:45:00
7:45 PM,15.8,3.2,58,30.45,10.0,Calm,Calm,-,N/A,,Overcast,0,2013-01-25 01:45:00
8:15 PM,17.6,5.0,58,30.42,10.0,SE,3.5,-,N/A,,Overcast,130,2013-01-25 02:15:00
8:35 PM,17.6,5.0,58,30.42,10.0,South,4.6,-,N/A,,Overcast,190,2013-01-25 02:35:00
8:45 PM,17.6,6.8,63,30.43,10.0,South,5.8,-,N/A,,Overcast,180,2013-01-25 02:45:00
8:55 PM,19.4,6.8,58,30.43,10.0,SSW,4.6,-,N/A,,Overcast,210,2013-01-25 02:55:00
9:15 PM,19.4,8.6,63,30.42,10.0,SSW,4.6,-,N/A,,Overcast,200,2013-01-25 03:15:00
9:35 PM,19.4,8.6,63,30.42,10.0,SSW,4.6,-,N/A,,Overcast,200,2013-01-25 03:35:00
9:55 PM,19.4,8.6,63,30.39,10.0,South,5.8,-,N/A,,Overcast,190,2013-01-25 03:55:00
10:15 PM,19.4,6.8,58,30.38,10.0,SSW,5.8,-,N/A,,Overcast,200,2013-01-25 04:15:00
10:35 PM,19.4,8.6,63,30.37,10.0,South,5.8,-,N/A,,Overcast,170,2013-01-25 04:35:00
10:55 PM,19.4,8.6,63,30.38,10.0,SSW,4.6,-,N/A,,Overcast,210,2013-01-25 04:55:00
11:15 PM,19.4,8.6,63,30.37,10.0,South,5.8,-,N/A,,Overcast,190,2013-01-25 05:15:00
11:35 PM,19.4,8.6,63,30.37,10.0,SSW,4.6,-,N/A,,Overcast,200,2013-01-25 05:35:00
11:55 PM,19.4,8.6,63,30.36,10.0,South,4.6,-,N/A,,Overcast,190,2013-01-25 05:55:00